Location: Oroua River
(40.4333°S, 175.4333°E)
Time: 14:06:46
(UTC+00:00)

Cosmos 1908 Rocket - Pass Details

Date: 03 February 2023
Orbit: 605 x 630 km, 82.5° (Epoch: 22 March)

Event Time Altitude Azimuth Distance (km) Brightness Sun altitude
Rises 14:32:06 0° 186° (S) 2,924 7.8 -26.6°
Reaches altitude 10° 14:34:22 10° 184° (S) 2,006 6.8 -26.4°
Enters shadow 14:38:27 70° 144° (SE) 663 3.7 -26.0°
